Total_Precipitation_Accumulation
0.01 0.00 0.00 0.00 0.00 0.00 0.00 0.00 0.02 0.00 0.00 0.00 0.00 0.01 0.02 0.03 0.04 0.04 0.02 0.01 0.01 0.00 0.01 0.05 0.08 0.11 0.12 0.20 0.55 0.70 0.86 0.73 0.52 0.32 0.30 0.26 0.29 0.20 0.21 0.22 0.40 0.51 0.82 0.92
0.02 0.02 0.00 0.00 0.00 0.00 0.03 0.08 0.03 0.00 0.00 0.01 0.00 0.00 0.00 0.01 0.17 0.03 0.01 0.01 0.00 0.00 0.00 0.01 0.02 0.08 0.22 0.43 0.48 0.41 0.32 0.20 0.19 0.15 0.12 0.12 0.15 0.13 0.09 0.14 0.26 0.76 0.77 0.75
0.03 0.01 0.00 0.00 0.00 0.00 0.00 0.01 0.00 0.00 0.02 0.06 0.02 0.01 0.00 0.00 0.02 0.05 0.03 0.03 0.00 0.01 0.03 0.05 0.09 0.12 0.12 0.10 0.06 0.09 0.14 0.09 0.14 0.08 0.06 0.05 0.14 0.24 0.19 0.19 0.25 0.51 0.49 0.57
0.03 0.00 0.00 0.03 0.02 0.00 0.00 0.00 0.00 0.02 0.11 0.09 0.00 0.02 0.02 0.01 0.00 0.05 0.01 0.01 0.02 0.03 0.03 0.02 0.01 0.01 0.00 0.05 0.08 0.12 0.10 0.10 0.04 0.03 0.03 0.02 0.03 0.09 0.11 0.13 0.14 0.30 0.34 0.41
0.04 0.01 0.01 0.02 0.01 0.00 0.02 0.00 0.02 0.07 0.04 0.08 0.03 0.08 0.03 0.02 0.00 0.00 0.01 0.01 0.01 0.00 0.00 0.02 0.01 0.03 0.05 0.04 0.08 0.09 0.11 0.13 0.05 0.03 0.02 0.04 0.03 0.02 0.07 0.13 0.18 0.25 0.34 0.30
0.02 0.02 0.04 0.05 0.01 0.02 0.03 0.03 0.11 0.09 0.07 0.15 0.02 0.08 0.04 0.01 0.02 0.03 0.02 0.01 0.00 0.01 0.08 0.06 0.04 0.06 0.06 0.07 0.20 0.11 0.11 0.09 0.08 0.06 0.03 0.08 0.14 0.09 0.07 0.09 0.09 0.13 0.22 0.22
0.07 0.08 0.01 0.00 0.03 0.01 0.04 0.11 0.28 0.30 0.20 0.11 0.03 0.03 0.01 0.01 0.02 0.11 0.07 0.00 0.00 0.01 0.04 0.02 0.02 0.05 0.05 0.09 0.20 0.10 0.05 0.06 0.05 0.04 0.07 0.11 0.22 0.18 0.18 0.10 0.08 0.14 0.12 0.11
0.15 0.22 0.04 0.00 0.00 0.01 0.02 0.14 0.25 0.33 0.19 0.08 0.06 0.03 0.00 0.01 0.00 0.00 0.00 0.00 0.00 0.00 0.00 0.01 0.02 0.05 0.07 0.17 0.18 0.09 0.04 0.06 0.07 0.14 0.26 0.23 0.21 0.29 0.40 0.30 0.17 0.26 0.16 0.11
0.18 0.24 0.01 0.00 0.00 0.01 0.02 0.05 0.06 0.26 0.29 0.32 0.07 0.03 0.03 0.01 0.01 0.00 0.00 0.00 0.00 0.00 0.00 0.00 0.01 0.00 0.02 0.23 0.17 0.05 0.03 0.02 0.04 0.15 0.27 0.16 0.37 0.64 0.51 0.40 0.38 0.38 0.40 0.37
0.14 0.18 0.02 0.00 0.02 0.01 0.00 0.03 0.30 0.54 0.46 0.31 0.03 0.07 0.15 0.10 0.03 0.00 0.00 0.00 0.00 0.00 0.00 0.00 0.00 0.00 0.01 0.06 0.05 0.02 0.08 0.22 0.19 0.07 0.09 0.12 0.19 0.31 0.41 0.34 0.38 0.60 0.65 0.48
0.03 0.09 0.08 0.01 0.11 0.01 0.01 0.07 0.27 0.37 0.15 0.28 0.24 0.42 0.47 0.30 0.12 0.02 0.00 0.01 0.01 0.01 0.00 0.00 0.01 0.00 0.00 0.00 0.00 0.05 0.04 0.18 0.38 0.60 0.49 0.28 0.38 0.36 0.58 0.60 0.76 0.60 0.56 0.65
0.03 0.04 0.05 0.01 0.01 0.01 0.01 0.02 0.08 0.31 0.26 0.18 0.32 0.60 0.51 0.31 0.14 0.07 0.06 0.04 0.03 0.07 0.11 0.04 0.02 0.02 0.02 0.03 0.05 0.08 0.09 0.18 0.46 1.32 1.41 0.87 0.91 0.78 0.75 0.81 0.78 0.81 0.81 0.75
0.05 0.09 0.14 0.19 0.12 0.11 0.07 0.07 0.12 0.17 0.30 0.42 0.50 0.47 0.65 0.64 0.36 0.17 0.12 0.09 0.07 0.12 0.17 0.14 0.07 0.07 0.12 0.14 0.12 0.18 0.30 0.40 0.98 1.27 1.22 0.96 1.06 1.15 0.94 0.80 0.57 0.35 0.35 0.40
0.05 0.10 0.16 0.21 0.27 0.28 0.30 0.26 0.18 0.30 0.39 0.20 0.23 0.15 0.32 0.93 0.81 0.52 0.33 0.19 0.30 0.30 0.26 0.26 0.21 0.17 0.20 0.29 0.48 0.61 0.73 0.78 1.13 0.90 0.90 0.72 0.61 0.72 0.37 0.35 0.30 0.23 0.18 0.19
0.13 0.22 0.14 0.10 0.04 0.07 0.23 0.25 0.40 0.37 0.24 0.31 0.14 0.16 0.14 0.35 0.81 0.68 0.61 0.46 0.44 0.72 0.50 0.49 0.33 0.32 0.31 0.35 0.45 0.54 0.64 0.78 0.93 0.95 0.96 0.73 0.44 0.41 0.29 0.32 0.29 0.18 0.15 0.16
0.13 0.13 0.18 0.11 0.03 0.03 0.01 0.03 0.11 0.23 0.30 0.25 0.24 0.38 0.18 0.27 0.48 0.62 0.75 0.75 0.49 0.67 0.67 0.86 0.61 0.40 0.43 0.41 0.39 0.41 0.49 0.64 0.64 0.57 0.63 0.55 0.43 0.37 0.29 0.29 0.32 0.24 0.24 0.27
0.15 0.14 0.07 0.03 0.00 0.01 0.01 0.00 0.00 0.01 0.05 0.08 0.09 0.15 0.17 0.35 0.34 0.61 0.75 0.82 0.73 0.70 0.66 0.94 0.86 0.62 0.53 0.62 0.61 0.53 0.48 0.55 0.53 0.57 0.63 0.50 0.40 0.42 0.33 0.33 0.31 0.29 0.36 0.59
0.21 0.15 0.21 0.11 0.03 0.13 0.05 0.00 0.01 0.00 0.01 0.00 0.01 0.06 0.13 0.29 0.36 0.65 0.76 0.82 0.90 0.84 0.86 1.12 1.18 0.88 0.68 0.70 0.61 0.52 0.49 0.49 0.65 0.65 0.75 0.73 0.58 0.47 0.45 0.44 0.35 0.51 0.67 0.62
0.18 0.24 0.32 0.16 0.08 0.07 0.01 0.00 0.00 0.03 0.03 0.00 0.00 0.04 0.10 0.11 0.21 0.59 0.79 0.55 0.77 0.70 0.50 0.37 0.57 0.84 0.81 0.68 0.61 0.50 0.42 0.32 0.32 0.49 0.52 0.65 0.74 0.78 0.68 0.71 0.89 0.86 0.66 0.36
0.34 0.34 0.36 0.29 0.17 0.08 0.06 0.00 0.00 0.00 0.06 0.00 0.00 0.01 0.02 0.10 0.26 0.26 0.38 0.41 0.57 0.34 0.16 0.06 0.05 0.12 0.30 0.49 0.62 0.54 0.46 0.41 0.30 0.31 0.46 0.46 0.55 0.84 1.05 1.14 0.92 0.68 0.62 0.54
0.28 0.45 0.41 0.36 0.34 0.07 0.00 0.00 0.02 0.12 0.20 0.02 0.04 0.03 0.05 0.08 0.18 0.28 0.23 0.49 0.66 0.13 0.02 0.01 0.01 0.01 0.01 0.05 0.17 0.30 0.34 0.43 0.46 0.33 0.33 0.53 0.70 0.60 0.57 0.56 0.64 0.70 0.64 0.58
0.21 0.31 0.31 0.38 0.43 0.18 0.05 0.11 0.19 0.23 0.10 0.04 0.07 0.08 0.09 0.15 0.29 0.41 0.48 0.51 0.31 0.10 0.01 0.00 0.00 0.00 0.00 0.00 0.01 0.07 0.13 0.15 0.20 0.30 0.32 0.31 0.27 0.37 0.37 0.37 0.36 0.33 0.37 0.38
0.45 0.25 0.22 0.15 0.18 0.21 0.18 0.25 0.22 0.15 0.17 0.16 0.14 0.11 0.16 0.38 0.62 0.74 0.70 0.56 0.31 0.09 0.01 0.00 0.00 0.00 0.00 0.00 0.02 0.05 0.06 0.08 0.09 0.11 0.15 0.19 0.18 0.20 0.28 0.35 0.32 0.28 0.30 0.30
0.51 0.65 0.74 0.77 0.60 0.31 0.36 0.31 0.14 0.18 0.26 0.23 0.15 0.15 0.20 0.28 0.37 0.41 0.39 0.35 0.22 0.06 0.01 0.02 0.02 0.02 0.05 0.06 0.06 0.06 0.06 0.07 0.09 0.09 0.08 0.08 0.09 0.14 0.13 0.16 0.20 0.22 0.24 0.25
0.37 0.54 0.65 1.08 0.75 0.54 0.44 0.92 0.47 0.22 0.15 0.11 0.05 0.03 0.05 0.04 0.05 0.06 0.04 0.03 0.03 0.04 0.04 0.04 0.06 0.08 0.06 0.05 0.08 0.11 0.13 0.11 0.11 0.10 0.09 0.10 0.10 0.11 0.09 0.14 0.23 0.25 0.39 0.47
0.16 0.39 0.78 0.99 1.17 1.00 0.88 0.78 0.69 0.49 0.31 0.16 0.07 0.04 0.03 0.01 0.01 0.03 0.05 0.07 0.05 0.04 0.05 0.06 0.06 0.07 0.09 0.08 0.11 0.12 0.11 0.11 0.13 0.14 0.15 0.22 0.19 0.18 0.18 0.18 0.26 0.38 0.47 0.53